Simultaneous Nadir Overpasses (SNOs) Predictions

Prediction of SNOs between NOAA-21 and METOP-C Satellite Orbit:

Table of predicted SNOs for the next 14.0 days since TLE Epoch: 10/26/2024
Index Date (NOAA-21) Time (NOAA-21) Lat,Lon (NOAA-21) SZA (NOAA-21 ) Date (METOP-C) Time (METOP-C) Lat,Lon (METOP-C) SZA (METOP-C ) Distance(km) Time Diff (sec)
1 11/04/2024 09:51:13 -73.50,-157.40 90.94 11/04/2024 09:52:19 -73.46,-154.41 91.04 94.67 66
2 11/04/2024 10:41:54 73.26, 10.46 88.82 11/04/2024 10:43:03 73.22, 12.37 88.74 61.69 69
3 11/04/2024 11:32:37 -73.21, 177.88 91.23 11/04/2024 11:33:47 -73.14, 179.53 91.33 53.61 70
4 11/04/2024 12:23:18 72.96, -14.27 88.53 11/04/2024 12:24:30 72.94, -13.56 88.49 23.41 72
5 11/04/2024 13:14:01 -72.92, 153.15 91.51 11/04/2024 13:15:14 -72.87, 153.61 91.57 15.87 73
6 11/04/2024 14:04:44 72.77, -39.23 88.35 11/04/2024 14:05:55 72.77, -39.26 88.35 1.02 71
7 11/04/2024 14:55:28 -72.77, 128.08 91.64 11/04/2024 14:56:38 -72.75, 128.01 91.67 3.33 70
8 11/04/2024 15:46:14 72.77, -64.62 88.38 11/04/2024 15:47:17 72.75, -64.65 88.35 2.92 63
9 11/04/2024 16:36:58 -72.78, 102.69 91.62 11/04/2024 16:37:59 -72.78, 102.74 91.62 1.42 61
10 11/04/2024 17:27:44 72.78, -90.01 88.41 11/04/2024 17:28:38 72.78, -89.92 88.40 2.77 54
11 11/04/2024 18:18:27 -72.73, 77.41 91.64 11/04/2024 18:19:21 -72.76, 77.35 91.62 3.18 54
12 11/04/2024 19:09:13 72.74,-115.29 88.38 11/04/2024 19:10:00 72.76,-115.31 88.40 2.30 47
13 11/04/2024 19:59:57 -72.74, 52.02 91.61 11/04/2024 20:00:43 -72.73, 51.97 91.62 1.88 46
14 11/04/2024 20:50:43 72.74,-140.68 88.41 11/04/2024 20:51:22 72.74,-140.69 88.40 1.03 39
15 11/04/2024 21:41:27 -72.75, 26.63 91.58 11/04/2024 21:42:04 -72.76, 26.69 91.57 2.66 37
16 11/04/2024 22:32:13 72.75,-166.07 88.44 11/04/2024 22:32:43 72.77,-165.97 88.45 3.51 30
17 11/04/2024 23:22:57 -72.75, 1.25 91.56 11/04/2024 23:23:26 -72.74, 1.30 91.57 2.23 29
18 11/05/2024 00:13:43 72.76, 168.55 88.47 11/05/2024 00:14:05 72.74, 168.64 88.45 3.60 22
19 11/05/2024 01:04:26 -72.71, -24.04 91.58 11/05/2024 01:04:48 -72.72, -24.08 91.57 1.98 22
20 11/05/2024 01:55:12 72.71, 143.26 88.44 11/05/2024 01:55:27 72.72, 143.26 88.45 0.95 15
21 11/05/2024 02:45:56 -72.72, -49.42 91.55 11/05/2024 02:46:10 -72.70, -49.46 91.57 2.15 14
22 11/05/2024 03:36:42 72.72, 117.87 88.47 11/05/2024 03:36:49 72.70, 117.88 88.45 2.21 7
23 11/05/2024 04:27:26 -72.72, -74.81 91.52 11/05/2024 04:27:31 -72.73, -74.74 91.52 2.43 5
24 11/05/2024 05:18:11 72.68, 92.59 88.45 11/05/2024 05:18:11 72.68, 92.49 88.45 3.33 0
25 11/05/2024 06:08:55 -72.73,-100.20 91.50 11/05/2024 06:08:52 -72.71,-100.13 91.52 3.36 3
26 11/05/2024 06:59:40 72.68, 67.20 88.47 11/05/2024 06:59:31 72.71, 67.21 88.50 2.79 9
27 11/05/2024 07:50:24 -72.68,-125.48 91.52 11/05/2024 07:50:14 -72.69,-125.51 91.52 0.91 10
28 11/05/2024 08:41:10 72.69, 41.82 88.50 11/05/2024 08:40:53 72.69, 41.83 88.50 0.56 17
29 11/05/2024 09:31:54 -72.69,-150.87 91.49 11/05/2024 09:31:36 -72.67,-150.89 91.52 3.04 18
30 11/05/2024 10:22:40 72.70, 16.43 88.53 11/05/2024 10:22:15 72.67, 16.44 88.50 3.59 25
31 11/05/2024 11:13:24 -72.70,-176.26 91.46 11/05/2024 11:12:57 -72.69,-176.17 91.47 2.86 27
32 11/05/2024 12:04:09 72.65, -8.86 88.51 11/05/2024 12:03:37 72.64, -8.94 88.50 2.99 32
33 11/05/2024 12:54:53 -72.65, 158.46 91.49 11/05/2024 12:54:19 -72.67, 158.44 91.47 2.12 34
34 11/05/2024 13:45:39 72.66, -34.24 88.53 11/05/2024 13:44:58 72.67, -34.22 88.55 1.63 41
35 11/05/2024 14:36:23 -72.66, 133.07 91.46 11/05/2024 14:35:41 -72.65, 133.06 91.47 1.13 42
36 11/05/2024 15:27:09 72.67, -59.63 88.56 11/05/2024 15:26:20 72.65, -59.60 88.55 2.00 49
37 11/05/2024 16:17:53 -72.67, 107.68 91.43 11/05/2024 16:17:02 -72.68, 107.78 91.42 3.53 51
38 11/05/2024 17:08:38 72.62, -84.92 88.54 11/05/2024 17:07:42 72.63, -84.99 88.55 2.49 56
39 11/05/2024 17:59:23 -72.67, 82.29 91.40 11/05/2024 17:58:24 -72.66, 82.40 91.42 3.77 59
40 11/05/2024 18:50:08 72.63,-110.30 88.57 11/05/2024 18:49:04 72.61,-110.37 88.55 3.34 64
41 11/05/2024 19:40:52 -72.63, 57.01 91.43 11/05/2024 19:39:46 -72.64, 57.01 91.42 0.77 66
42 11/05/2024 20:31:38 72.64,-135.69 88.59 11/05/2024 20:30:25 72.64,-135.65 88.60 1.35 73
43 11/05/2024 21:22:22 -72.64, 31.62 91.40 11/05/2024 21:21:08 -72.62, 31.63 91.42 2.38 74
44 11/05/2024 22:13:03 72.39,-160.57 88.36 11/05/2024 22:11:51 72.41,-161.45 88.40 29.74 72
45 11/05/2024 23:03:47 -72.39, 6.75 91.63 11/05/2024 23:02:34 -72.39, 5.84 91.61 30.65 73
46 11/05/2024 23:54:27 72.09, 174.65 88.07 11/05/2024 23:53:19 72.08, 172.57 88.11 71.02 68
47 11/06/2024 00:45:10 -72.04, -17.94 91.97 11/06/2024 00:44:02 -72.06, -20.14 91.90 75.33 68



Historial Predications of SNOs between NOAA-21 and METOP-C
